www.pogodaiklimat.ru

Погода и климат >> Архив погоды >> Монголия >> Ханбогд


ПОГОДА в Ханбогде

  • Прогноз погоды в Ханбогде
  • Монитор погоды в Ханбогде

АРХИВ ПОГОДЫ в Ханбогде

Время (UTC), дата Ветер
(напр.,м/с)
 
Видим.   Явления Облачность Т
(С)
Тd
(С)
f
(%)
Тe
(С)
Тes
(С)
Комфортность P
(гПа)
Po
(гПа)
Тmin
(С)
Tmax
(С)
R
(мм)
R24
(мм)
S
(см)
03 9.06 В 6 50 км 8/8 1000 м
[Sc]
+23.5 +1.8 24 +23 +24 комфорт 1007.8 886.5
06 9.06 ЮВ 8 50 км 8/6 1000 м
[Sc Ci fib]
+27.2 +0.8 18 +25 +26 комфорт 1004.4 884.8
09 9.06 В 5 50 км 8/0
[Ac lent Ci]
+27.6 +0.4 17 +25 +27 комфорт 1003.2 883.8
12 9.06 В 6 50 км 8/0
[Ac lent Ci]
+26.1 +0.7 19 +24 +24 комфорт 1004.1 884.2 +28.6
15 9.06 В 4 50 км 6/0
[As trans]
+22.5 +0.9 24 +22 +22 комфорт 1007.0 885.3
18 9.06 ЮВ 3 50 км 6/0
[As trans]
+21.1 +0.3 25 +21 +21 комфорт 1007.1 884.9
21 9.06 Ю 4 50 км 8/0
[Ac lent Cs]
+20.7 +1.5 28 +21 +21 комфорт 1007.1 884.7
00 10.06 ЮВ 6 50 км 9/0
[Ac lent Cs]
+23.1 +2.0 25 +23 +24 комфорт 1006.2 884.8 +20.3
03 10.06 ЮВ 6 50 км 8/0
[Ac lent Cs]
+27.4 +1.8 19 +26 +29 жарко 1003.4 883.9
06 10.06 ЮВ 3
{14}
50 км 10/0
[Cs]
+30.0 +1.5 16 +27 +40 жарко 1000.1 882.1
09 10.06 Ю 3 50 км 8/3 1000 м
[Frnb Cs]
+31.8 +2.0 15 +29 +33 жарко 997.2 880.1
12 10.06 В 3 50 км 8/4 1000 м
[Cu med, cong Ac cuf]
+30.4 +1.8 16 +28 +28 жарко 997.5 879.9 +32.7
15 10.06 ЮВ 5 50 км 6/0
[Ac trans]
+27.9 +0.6 17 +26 +26 жарко 999.4 880.7
18 10.06 Ю 4 50 км 4/0
[Ci sp]
+25.6 +1.0 20 +24 +24 комфорт 999.7 880.1
21 10.06 ЮЗ 6 50 км 10/8 1000 м
[Sc Ac As]
+28.4 +4.0 21 +27 +27 жарко 998.2 879.8
00 11.06 Ю 5 50 км 8/8 1000 м
[Cb calv]
+25.9 +3.8 24 +25 +25 комфорт 1000.2 880.6 +25.0
03 11.06 С 5 50 км 10/8 600 м
[Cb calv Ac As Cs]
+30.3 +4.8 20 +28 +29 жарко 998.4 880.8
06 11.06 В 4 50 км в посл. час гроза 10/8 600 м
[Cb cap Cs]
+30.0 +4.6 20 +28 +30 жарко 998.1 880.3
09 11.06 ЮЗ 4 50 км 10/8 600 м
[Cb cap Ac As]
+29.2 +3.9 20 +27 +28 жарко 998.3 880.2
12 11.06 З 4 50 км 10/8 600 м
[Cb cap Ac As Cs]
+26.7 +7.2 29 +26 +26 жарко 1001.0 881.7 +32.3
15 11.06 ЮЗ 3 н/о 9/3 1000 м
[Cu Sc As trans]
+25.2 +7.3 32 +25 +25 комфорт 1002.6 882.5
18 11.06 З 4 50 км 5/0
[Cs]
+23.9 +6.7 33 +24 +24 комфорт 1003.5 882.8
21 11.06 З 3 50 км 10/4 1000 м
[Cu Sc As trans]
+20.5 +7.5 43 +22 +22 комфорт 1006.1 883.7
00 12.06 С 2 50 км 8/3 1000 м
[Cu Sc Ac lent Ci fib]
+23.4 +1.1 23 +22 +25 комфорт 1005.6 884.5 +20.4
03 12.06 СВ 5 50 км 8/0
[Ac lent Cs]
+28.6 +2.7 19 +27 +32 жарко 1003.7 884.8
06 12.06 СВ 9
{14}
20 км пыль 6/4 1000 м
[Cu med, cong Ci]
+29.6 +6.3 23 +28 +29 жарко 1002.8 884.3
09 12.06 СВ 8
{17}
50 км 3/0
[Ci]
+29.4 +4.1 20 +28 +29 жарко 1002.7 884.2
12 12.06 СВ 7 50 км 5/0
[Ac lent Ci]
+26.5 +3.7 23 +25 +25 комфорт 1004.8 884.9 +30.7
15 12.06 СВ 4 50 км 1/0
[Ac trans]
+22.1 +1.7 26 +22 +22 комфорт 1009.2 887.1
18 12.06 СВ 5 50 км 9/5 1000 м
[Sc Ac As]
+20.2 -0.4 25 +20 +20 1010.1 887.2
21 12.06 В 1 50 км 3/0
[Ac cast Ci fib]
+17.2 +1.0 33 +18 +18 1012.1 887.8
00 13.06 В 3 50 км ясно +20.6 +0.4 26 +21 +25 комфорт 1011.5 888.5 +16.8
03 13.06 В 4 50 км 3/0
[Cc]
+24.4 -0.1 20 +23 +34 комфорт 1009.5 888.3
06 13.06 В 4 50 км 3/0
[Ci fib]
+27.0 -1.8 15 +25 +36 комфорт 1006.5 886.6
09 13.06 В 3 50 км 3/0
[Ac lent]
+27.7 -3.2 13 +25 +30 комфорт 1004.3 884.9
12 13.06 В 4 50 км 1/0
[Ci]
+26.6 -3.1 14 +24 +24 комфорт 1004.5 884.7 +28.7
15 13.06 ЮВ 4 50 км ясно +24.2 -2.4 17 +23 +23 комфорт 1005.9 885.0
18 13.06 Ю 5 50 км 4/0
[Ac As]
+22.4 -2.3 19 +21 +21 комфорт 1006.3 884.7
21 13.06 В 4 50 км 3/0
[Cs]
+17.6 -3.2 24 +17 +17 1008.2 884.5
00 14.06 ЮВ 5 50 км 5/0
[Cs]
+23.3 -3.1 17 +22 +24 комфорт 1005.7 884.5 +17.2
03 14.06 В 7 50 км 9/0
[Cs]
+27.9 -2.0 14 +25 +29 комфорт 1002.7 883.6
06 14.06 ЮВ 4 50 км 9/0
[Cs]
+30.9 +3.0 17 +28 +39 жарко 998.4 881.2
09 14.06 Ю 6 50 км 10/5 1000 м
[Frnb As trans Ci fib]
+30.9 +3.8 18 +29 +29 жарко 996.6 879.4
12 14.06 Ю 4 50 км 10/0
[As op]
+29.7 +4.4 20 +28 +28 жарко 997.2 879.4 +32.3
15 14.06 ЮВ 7 н/о гроза без осадков 10/10 600 м
[Cb cap]
+27.0 +8.9 32 +27 +27 жарко 998.6 879.7
18 14.06 СЗ 2 н/о {ливн. осадки} 10/10 600 м
[Sc]
+21.8 +12.5 55 +24 +24 комфорт 1002.5 881.2
21 14.06 ЮЗ 4 20 км слаб. дождь 10/0 600 м
[As op]
+19.4 +15.9 80 +21 +21 комфорт 1003.2 880.8
00 15.06 ЮЗ 6 50 км {дождь} 9/6 1000 м
[Sc As op]
+18.6 +14.3 76 +19 +19 1003.8 881.0 +18.1 0.2
03 15.06 З 5 50 км 10/1 1000 м
[Cu hum Ac lent Cs]
+23.2 +8.5 39 +24 +28 комфорт 1001.1 880.4
06 15.06 З 6 50 км 9/3 1000 м
[Cu hum Ac cast Cs]
+25.1 +6.3 30 +25 +28 комфорт 999.0 879.3
09 15.06 ЮЗ 4 50 км 9/3 1000 м
[Cu med, cong As op Ci]
+27.3 +5.6 25 +26 +28 жарко 996.6 877.9
12 15.06 ЮЗ 5 50 км 9/6 1000 м
[Cu med, cong Ac cast Cs]
+27.2 +3.0 21 +26 +26 жарко 995.8 877.3 +27.3
15 15.06 СЗ 5 50 км 6/6 1000 м
[Sc]
+22.8 +4.8 31 +23 +23 комфорт 998.7 878.2
18 15.06 СВ 2 50 км 3/0
[Ac As]
+18.0 +13.5 75 +19 +19 1001.4 878.7
21 15.06 ЮЗ 1 50 км 4/0
[Ac cast]
+16.2 +12.9 81 +17 +17 1002.7 879.0
00 16.06 СЗ 3 20 км дымка 8/5
[Cu med, cong Ci sp]
+17.8 +13.3 75 +18 +20 1001.7 878.0 +16.2

 

Местоположение метеостанции Ханбогд (Монголия): широта 43.20 долгота 107.16 высота над уровнем моря 914 м.

В архиве по умолчанию представлена погода в Ханбогде за последнюю неделю. Архивные данные за месяц целиком и за предыдущие месяцы, начиная с января 2011 года, Вы можете получить, выбрав интересующий диапазон дат из раскрывающегося списка и нажав кнопку "Ввод!".


*Определитесь, кто Вы:
робот инопланетянин человек

Внимание! Время в таблицах - всемирное. Для получения местного времени необходимо прибавить поправку, которая равна 8 ч.

Смотрите также архив погоды в соседних городах и на ближайших метеорологических станциях:

Погода на Баян Добо Сума (Монголия) (152 км)
Погода в Хатанбулаге (Монголия) (166 км)
Погода в Цогт-Овоо (Монголия) (201 км)
Погода в Баинвендурьере (Внутренняя Монголия, Китай) (205 км)
Погода в Хэй Лю Чжэнь (Внутренняя Монголия, Китай) (213 км)
Погода в Даланзадгаде (Монголия) (226 км)
Погода в Мандале (Внутренняя Монголия, Китай) (253 км)
Погода в Линьхэ (Внутренняя Монголия, Китай) (271 км)
Погода в Мандалгоби (Монголия) (294 км)
Погода в Сайншанде (Монголия) (302 км)

Пояснения к столбцам:

Ветер - указаны скорость ветра в м/с - средняя за 10 мин, порывы в срок и между сроками (в фигурных скобках) и направление, откуда дует ветер: С - северный, СВ - северо-восточный, В - восточный, ЮВ - юго-восточный, Ю - южный, ЮЗ - юго-западный, З - западный, СЗ - северо-западный.
Видимость - горизонтальная дальность видимости в метрах или километрах. При видимости от 1 до 10 км при отсутствии осадков обычно наблюдается дымка, при ухудшении видимости до 1 км и менее - туман. В сухую погоду видимость может ухудшаться дымом, пылью или мглою.
Явления - указаны атмосферные явления, наблюдавшиеся в срок или в последний час перед сроком; фигурными скобками обозначены явления, наблюдавшиеся между сроками (за 1-3 часа до срока); квадратными скобками обозначены град или гололедные отложения с указанием их диаметра в мм.
Облачность - указаны через наклонную черту общая и нижняя облачность в баллах и высота нижней границы облаков в метрах; квадратными скобками обозначены формы облаков: Ci - перистые, Cs - перисто-слоистые, Cc - перисто-кучевые, Ac - высококучевые, As - высокослоистые, Sc - слоисто-кучевые, Ns - слоисто-дождевые, Cu - кучевые, Cb - кучево-дождевые. Подробнее классификацию облаков см. в Атласе облаков (PDF).
T - Температура воздуха - температура, измеренная на высоте 2 м над землей.
Td - Температура точки росы - температура, при понижении до которой содержащийся в воздухе водяной пар достигнет насыщения.
f - Относительная влажность воздуха - влажноcть воздуха, измеренная на высоте 2 м над землей.
Te - Эффективная температура - температура, которую ощущает одетый по сезону человек в тени. Характеристика душности погоды. При расчете учитывается влияние влажности воздуха и скорости ветра на теплоощущения человека.
Tes - Эффективная температура на солнце - температура, которую ощущает человек, с поправкой на солнечный нагрев. Характеристика знойности погоды. Зависит от высоты солнца над горизонтом, облачности и скорости ветра. Ночью, в пасмурную погоду, а также при ветре 12 м/с и более поправка равна нулю.
P - Атмосферное давление - приведенное к уровню моря атмосферное давление.
Po - Атмосферное давление - измеренное на уровне метеостанции атмосферное давление.
Tmin - Минимальная температура - минимум температуры воздуха на высоте 2 м над землей.
Tmax - Максимальная температура - максимум температуры воздуха на высоте 2 м над землей.
R - Количество осадков - Количество выпавших осадков за период времени, мм. При наведении курсора мыши на число - период времени, за который выпало указанное количество осадков.
R24 - Количество осадков - Количество выпавших осадков за 24 часа, мм.
S - Снежный покров - Высота снежного покрова, см. При наведении курсора мыши на число - состояние снежного покрова и степень покрытия местности в баллах.